"Pseudo-MPEC" for P20ZYrD

Created 2020 Jun 3 20:07:11 UT using Find_Orb

Click here for an explanation of pseudo-MPECs

 
 Astrometry: 
     P20ZYrD  C2020 05 112RT/Eg$w\Ln`\sa0-eBi#:fmT%M@2[PWHT1yj]^x81_3lhU[EI1pF52
     P20ZYrD  C2020 05 11.jx)YYAstrometry3\gD[W\7;Z)?,92NHredacted;Gsq!^BdN@mF52
     P20ZYrD  C2020 05 11+SLclick59cKJyb?YlExR^dhere,2SWgkyQ?sDJMpCbc,33+PRvQF52
     P20ZYrD KC2020 05 12N5'.um;SZ,,2%0*S'MoDY)23\/pR7_3y[Znh;N'YT7car61qI:)gW34
     P20ZYrD KC2020 05 12'G#6=0'#C8$tsNTT-cEq$-5iW)rx0?72'n/-,3[f`/t:=]`hXuQGW34
     P20ZYrD KC2020 05 12,[s+E8aF)MMw65]$pIdDYw[?eforwQ:)RGdK,cexplanation=m/W34

Station data:
(F52) Pan-STARRS 2, Haleakala  (N20.707384 W156.255910)  US/Hawaii. 1.8-m
   Ritchey-Chrétien + CCD.
(W34) Squirrel Valley Observatory, Columbus  (N35.225393 W82.154700)
   US/North Carolina.  Observer R. L. Flynn. 0.35-m f/1.9 Schmidt-Cassegrain
   + CCD.

Orbital elements:  P20ZYrD
   Perihelion 2019 Dec 24.366472 +/- 1.65 TT =  8:47:43 (JD 2458841.866472)
Epoch 2020 May 12.0 TT = JDT 2458981.5   Earth MOID: 0.0139   AutoNEOCP
M 152.31964387 +/- 0.9              (J2000 ecliptic)
n   1.09085293 +/- 0.006            Peri.   19.77734 +/- 0.56
a   0.93459886 +/- 0.00343          Node    53.64144 +/- 0.031
e   0.1074862 +/- 0.00516           Incl.    2.95843 +/- 0.055
P   0.90/330.01d           H 27.9   G  0.15   U  9.3  
q 0.83414235 +/- 0.00789    Q 1.03505536 +/- 0.00103
From 6 observations 2020 May 11-12 (20.2 hr); mean residual 0".56
Residuals in arcseconds: 
200511 F52  .04+  .71-    200511 F52  .18-  1.2+    200512 W34  .66-  .37-    
200511 F52  .14+  .44-    200512 W34  .03+  .35-    200512 W34  .63+  .67+    

Ephemerides (geocentric):
Date (UTC) HH   RA              Dec         delta   r     elong  mag " sig PA
---- -- -- --  -------------   -----------  ------ ------ -----  --- ---- ---
2020 06 03 20  12 00 09.456   -21 36 45.47  .04772 1.0348 114.0 23.7  274  44
2020 06 03 21  12 00 08.231   -21 37 48.94  .04778 1.0348 113.9 23.7  275  44
2020 06 03 22  12 00 07.017   -21 38 52.29  .04783 1.0348 113.9 23.7  275  44
2020 06 03 23  12 00 05.811   -21 39 55.53  .04789 1.0348 113.9 23.7  275  44
2020 06 04 00  12 00 04.616   -21 40 58.65  .04794 1.0348 113.8 23.7  276  44
2020 06 04 01  12 00 03.430   -21 42 01.66  .04800 1.0348 113.8 23.7  276  44
2020 06 04 02  12 00 02.253   -21 43 04.55  .04805 1.0348 113.8 23.7  277  44
2020 06 04 03  12 00 01.086   -21 44 07.33  .04811 1.0348 113.7 23.7  277  44
2020 06 04 04  11 59 59.929   -21 45 10.00  .04816 1.0348 113.7 23.7  277  44
2020 06 04 05  11 59 58.781   -21 46 12.55  .04822 1.0348 113.6 23.7  278  44
2020 06 04 06  11 59 57.642   -21 47 14.99  .04827 1.0348 113.6 23.7  278  44
2020 06 04 07  11 59 56.513   -21 48 17.32  .04833 1.0348 113.6 23.7  278  44
2020 06 04 08  11 59 55.393   -21 49 19.54  .04838 1.0348 113.5 23.7  279  44
2020 06 04 09  11 59 54.282   -21 50 21.64  .04844 1.0348 113.5 23.7  279  44
2020 06 04 10  11 59 53.181   -21 51 23.64  .04849 1.0348 113.5 23.7  279  44
2020 06 04 11  11 59 52.089   -21 52 25.52  .04855 1.0348 113.4 23.7  280  44
2020 06 04 12  11 59 51.006   -21 53 27.30  .04860 1.0348 113.4 23.7  280  44
2020 06 04 13  11 59 49.932   -21 54 28.96  .04866 1.0348 113.4 23.7  281  44
2020 06 04 14  11 59 48.867   -21 55 30.51  .04871 1.0348 113.3 23.7  281  44
2020 06 04 15  11 59 47.811   -21 56 31.96  .04877 1.0348 113.3 23.7  281  44
2020 06 04 16  11 59 46.765   -21 57 33.29  .04882 1.0348 113.2 23.7  282  44
2020 06 04 17  11 59 45.727   -21 58 34.52  .04888 1.0348 113.2 23.7  282  44
2020 06 04 18  11 59 44.699   -21 59 35.64  .04893 1.0348 113.2 23.8  282  44
2020 06 04 19  11 59 43.679   -22 00 36.65  .04899 1.0348 113.1 23.8  283  44
2020 06 04 20  11 59 42.668   -22 01 37.55  .04904 1.0348 113.1 23.8  283  44
2020 06 04 21  11 59 41.667   -22 02 38.34  .04910 1.0348 113.1 23.8  283  44
2020 06 04 22  11 59 40.674   -22 03 39.03  .04915 1.0348 113.0 23.8  284  44
2020 06 04 23  11 59 39.690   -22 04 39.61  .04921 1.0348 113.0 23.8  284  44
2020 06 05 00  11 59 38.715   -22 05 40.09  .04926 1.0348 113.0 23.8  284  44
2020 06 05 01  11 59 37.748   -22 06 40.46  .04932 1.0348 112.9 23.8  285  44
2020 06 05 02  11 59 36.790   -22 07 40.72  .04937 1.0348 112.9 23.8  285  44
2020 06 05 03  11 59 35.842   -22 08 40.88  .04943 1.0348 112.9 23.8  286  44
2020 06 05 04  11 59 34.901   -22 09 40.93  .04948 1.0348 112.8 23.8  286  44
2020 06 05 05  11 59 33.970   -22 10 40.88  .04954 1.0348 112.8 23.8  286  44
2020 06 05 06  11 59 33.047   -22 11 40.72  .04959 1.0348 112.7 23.8  287  44
2020 06 05 07  11 59 32.132   -22 12 40.46  .04965 1.0348 112.7 23.8  287  44
2020 06 05 08  11 59 31.226   -22 13 40.09  .04970 1.0348 112.7 23.8  287  44
2020 06 05 09  11 59 30.329   -22 14 39.63  .04976 1.0348 112.6 23.8  288  44
2020 06 05 10  11 59 29.440   -22 15 39.06  .04981 1.0348 112.6 23.8  288  44
2020 06 05 11  11 59 28.560   -22 16 38.38  .04987 1.0348 112.6 23.8  288  43
2020 06 05 12  11 59 27.688   -22 17 37.60  .04992 1.0348 112.5 23.8  289  43
2020 06 05 13  11 59 26.825   -22 18 36.73  .04998 1.0348 112.5 23.8  289  43
2020 06 05 14  11 59 25.970   -22 19 35.75  .05003 1.0348 112.5 23.8  289  43
2020 06 05 15  11 59 25.124   -22 20 34.66  .05009 1.0348 112.4 23.8  290  43
2020 06 05 16  11 59 24.285   -22 21 33.48  .05014 1.0348 112.4 23.8  290  43
2020 06 05 17  11 59 23.455   -22 22 32.20  .05020 1.0348 112.4 23.8  290  43
2020 06 05 18  11 59 22.634   -22 23 30.81  .05025 1.0348 112.3 23.8  291  43
2020 06 05 19  11 59 21.820   -22 24 29.32  .05030 1.0348 112.3 23.8  291  43